CAPE
1852 2561 2164 2861 2525 2401 2195 2396 2454 2436 2448 2565 2778 2367 2692 2577 2387 2249 2662 2828 3037 2386 2859 2830 3229 3010 3892 4085 3419 2899 3031 3140 3830 2779 3344 3541 3342 3423 3243 2733 2666 2204
1951 2275 2568 2674 2508 2949 2216 2319 2335 2250 2214 2210 2297 2360 2606 2751 2536 3004 2618 2716 3070 3038 3067 2943 3082 3031 3577 3813 3389 2586 3303 3820 2626 3107 3110 3578 3617 3162 2988 2816 2844 3544
2058 2197 2316 2203 2411 2663 2970 2146 2115 1928 2017 2256 2054 2015 2528 2616 2709 2577 2677 2963 2538 3164 3289 3288 3367 3528 3459 3452 3444 3281 4014 3976 2956 2671 2453 2599 3674 3436 3215 3306 3007 2924
2283 2208 2120 2034 2072 2276 2438 2264 1929 1998 2024 1723 1970 2580 1963 2635 2303 2120 2807 3710 2395 2512 3077 3223 3305 3454 3379 3576 3593 3544 3186 3760 3558 3387 3410 3413 3480 4136 3523 3063 3455 2983
2235 2267 2119 1916 1806 1902 2018 1895 1794 2090 1950 1608 1438 1687 1883 1930 2096 2042 2956 2955 2415 2670 2925 2947 2939 3086 3164 3376 3582 3426 3305 3121 3325 3164 3221 2728 3386 4180 3991 3312 3113 2822
2157 2132 2080 1870 1672 1702 1867 1891 1815 1579 1793 1682 1501 1439 1393 2572 1902 2119 2596 2481 2558 2583 2553 2667 2730 2840 2908 3055 3639 3381 3186 2996 2756 2968 3469 3278 3489 3969 3616 3278 2805 2903
2243 2097 2111 2028 1598 1726 1784 1781 1790 1574 1530 1498 1619 1277 1308 2275 1863 2118 2217 2314 2464 2517 2351 2197 2351 2468 2730 2671 3298 3280 3033 2958 2668 2866 3228 3409 3636 3402 3296 3127 3414 3003
2522 2432 2301 2183 2025 1860 1712 1663 1599 1575 1622 1326 1603 1309 1268 1479 2036 2077 1930 2100 2027 1963 1960 2053 2150 1982 2317 2493 2828 2760 2842 3022 3107 2885 2806 2981 3150 2983 2774 2805 3088 3341
2393 2373 2260 2150 1974 1886 1702 1226 1344 1282 1370 1438 1484 1346 1151 1351 1237 1497 2091 1891 1922 1914 1841 1840 2157 2254 2024 2359 2575 2533 2721 2597 2344 2873 2918 2994 3197 3161 3016 2814 2554 3025
2568 2475 2179 2168 2030 1854 1748 1265 985 1213 1244 1549 1438 1368 1065 1336 1290 1172 1322 2107 1871 1929 1875 1754 2324 2227 2189 1992 2424 2513 2482 2445 2345 2377 2592 2766 2806 2917 2976 2891 2845 2657
2024 2046 2064 1668 1380 1470 1102 1174 827 549 1183 1102 1452 1174 958 1037 1555 1247 986 1608 1990 2011 2569 2018 2506 2247 1985 1863 2188 2454 2451 2341 2207 2219 2546 2546 2578 2592 3116 2565 2394 2349
1788 1500 1650 1615 1432 1511 1446 1093 682 442 703 730 1090 1041 1000 848 1060 1573 1539 1646 1624 1651 1936 2374 2233 2468 2023 1798 1692 1958 2410 2371 2264 2096 1957 2216 2518 2359 2377 2542 2578 2450
1490 1730 1948 1925 1769 1654 1362 1315 1076 962 752 874 708 982 919 872 748 1145 1898 1939 1697 1521 1552 1973 2148 1996 2272 2249 1882 1694 1542 1906 2103 2166 2118 1941 1882 1992 2195 2354 2308 2127
1302 1691 1474 1606 1847 1752 1502 1365 1168 906 1141 1522 1674 816 876 819 937 749 1145 2090 1989 1670 1525 1677 1918 1922 1893 2273 2242 1982 1908 1842 1618 1700 2013 2002 1875 1713 1663 1708 1795 1828
1174 1226 1194 1344 1355 1334 1326 1188 1056 1233 1622 1856 1835 1578 817 769 625 991 992 1099 1941 1855 1710 1735 1861 1876 1854 2067 2334 2108 1900 1936 2039 1742 1638 1831 1835 1624 1566 1587 1571 1607
862 1098 1536 1392 1310 1267 1236 1286 1246 1816 2230 2090 2002 1813 1238 1372 1420 621 925 974 1090 1690 1748 1729 1824 1946 2064 1887 2086 2320 2079 1794 1818 1908 1788 1593 1570 1496 1404 1506 1584 1528
994 1272 1257 1172 1325 1726 1602 1955 2490 2343 2138 2065 1724 1417 1368 1467 1451 1234 1238 714 931 1022 1416 1533 1495 1619 1911 1914 1878 2109 2232 2124 1853 1784 1797 1674 1336 1252 1260 1256 1289 1342
741 813 838 1112 1329 1418 1376 1261 1669 1670 1614 1666 1612 1473 1497 1588 1400 1440 1381 1381 1162 939 906 1113 1265 1322 1410 1652 1810 1869 2045 2141 2054 1914 1776 1695 1467 1085 1131 1213 1168 1073
773 800 835 856 908 1203 1373 1520 1566 1728 1792 1776 2219 2392 2012 1830 1762 1655 1507 1488 1371 1284 1434 1556 1086 1089 1182 1187 1312 1563 1773 1868 1899 1948 1880 1763 1698 1454 1192 1210 1275 1201
650 714 863 820 833 857 996 1179 1338 1463 1510 1976 2136 2101 2107 2138 2117 1920 1699 1520 1504 1430 1330 1342 1327 1470 1387 1097 1022 1148 1330 1516 1614 1778 1834 1788 1663 1518 1354 1254 1203 1209
454 510 531 784 701 762 831 994 1090 1090 1258 1440 1954 2428 2410 2285 2087 1988 1940 1818 1622 1475 1362 1292 1223 1199 1314 1460 1484 1214 915 1010 1251 1445 1588 1642 1636 1482 1291 1084 1028 1049
540 530 475 458 560 688 783 921 938 1165 1276 1524 1865 1962 2192 2224 2206 2094 1920 1764 1632 1530 1450 1391 1346 1250 1174 1184 1326 1604 1749 1467 953 988 1294 1385 1359 1378 1318 1151 918 856
390 464 532 517 630 691 777 922 981 1303 1486 1711 1486 1562 1704 1778 1894 1989 1945 2018 1949 1786 1713 1580 1461 1391 1365 1282 1274 1350 1604 1866 1775 1540 1182 1082 1155 1098 1062 1035 911 742
364 378 383 446 618 597 644 761 925 990 961 931 1092 1393 1290 1296 1400 1744 1884 1935 2077 2027 1961 1928 1825 1737 1623 1456 1339 1471 1600 1762 1795 1644 1458 1335 1114 986 868 676 580 1025
250 202 0 44 375 517 537 661 778 862 921 908 879 774 817 1004 1212 1260 1298 1476 1562 1636 1611 1939 1891 1759 1839 1781 1615 1585 1687 1786 1870 1759 1414 1061 1076 1136 1079 995 853 1258
5 4 14 23 0 242 348 543 698 752 721 708 723 739 777 806 880 996 1086 1166 1162 1205 1635 1657 1682 1646 1653 1662 1645 1591 1512 1591 1744 1867 1681 1268 1058 1094 1140 1123 1097 1025
Wind_Speed
7 7 7 7 5 5 4 5 5 5 4 4 3 1 2 0 2 1 2 1 1 3 3 3 2 2 3 1 1 0 2 4 4 4 6 4 6 9 10 10 11 11
9 8 8 8 6 6 5 5 5 6 5 5 5 4 3 2 2 2 1 1 0 2 2 3 2 2 2 3 2 1 1 2 4 4 5 7 7 7 9 10 10 10
11 10 8 8 7 5 4 5 6 5 6 6 5 4 4 3 3 4 2 1 1 1 2 2 2 2 2 3 2 1 0 1 3 4 4 6 8 6 8 10 11 10
12 11 9 8 8 5 4 6 5 6 6 6 6 5 4 5 4 3 4 2 0 1 2 1 1 1 0 1 2 1 0 1 1 3 3 5 7 7 8 8 10 9
11 11 10 9 8 6 4 6 5 6 7 5 5 7 5 6 5 4 5 4 2 3 0 1 1 1 0 1 1 1 1 1 2 2 3 4 6 7 8 8 9 11
11 12 12 11 8 7 5 5 6 6 7 8 6 7 7 8 6 5 5 5 4 4 2 2 2 1 1 1 2 1 1 1 2 2 3 4 5 7 7 7 6 8
10 11 12 13 9 7 5 5 5 6 6 8 9 8 7 10 7 6 6 5 5 4 5 3 3 3 2 3 3 3 3 3 4 3 3 4 4 7 8 7 6 6
16 15 15 17 13 9 7 6 6 7 7 7 9 8 9 9 9 8 7 7 6 6 5 5 3 3 3 3 3 3 4 5 4 5 4 5 5 5 7 9 9 6
15 14 16 17 17 15 10 9 8 8 9 7 8 9 10 11 10 10 9 7 8 7 5 6 5 4 3 4 4 4 4 6 7 6 5 5 5 5 5 7 8 7
17 17 17 19 20 20 19 14 12 11 10 9 8 10 9 11 11 10 10 10 8 9 7 7 7 6 5 5 4 4 5 6 6 8 7 6 5 5 6 7 7 7
23 26 27 31 34 34 35 35 29 21 12 10 10 9 10 11 13 12 11 11 10 10 11 9 9 7 7 6 7 6 6 6 6 8 8 8 7 7 6 6 6 6
28 27 27 24 22 22 21 19 21 23 25 13 9 9 10 9 10 12 12 12 11 10 11 11 10 10 8 7 6 8 8 7 8 8 8 9 9 8 7 8 7 6
20 22 22 21 19 19 18 20 21 17 17 19 10 7 7 10 8 10 12 13 12 11 10 10 10 10 10 9 8 8 8 9 9 9 10 9 10 9 9 9 9 9
22 23 24 20 17 17 17 20 19 19 18 14 15 6 7 7 10 8 10 13 12 12 11 11 11 10 10 10 9 8 9 9 8 9 9 9 9 8 8 9 10 10
24 25 22 21 20 18 18 19 24 25 22 17 14 13 12 8 10 11 9 10 12 12 11 11 11 10 10 10 10 9 9 8 9 8 8 9 9 8 8 7 9 10
25 24 22 21 22 22 21 23 25 25 21 17 13 13 16 18 17 12 9 10 10 11 11 10 11 11 10 9 10 11 10 8 8 9 8 9 9 8 8 8 7 8
24 24 24 24 25 27 27 25 24 24 21 17 14 13 15 16 18 19 16 12 9 10 10 9 10 11 10 9 9 9 10 11 9 8 9 9 9 9 9 9 10 9
22 24 24 24 23 22 21 21 20 20 20 19 17 17 17 18 20 18 16 17 17 14 11 10 11 10 10 10 8 7 8 10 11 10 9 9 9 9 10 11 10 10
19 21 22 23 25 26 25 24 24 22 22 23 21 20 19 19 19 19 18 18 16 17 17 18 18 13 9 10 9 8 8 9 12 11 10 9 9 10 10 11 12 12
22 21 20 21 23 25 25 24 22 21 21 21 21 20 19 20 21 21 20 20 19 19 18 17 17 17 14 10 9 9 9 10 12 12 11 9 8 9 10 11 12 13
26 25 25 24 24 23 20 18 15 17 20 22 24 22 22 22 22 23 23 23 22 22 22 21 20 22 25 20 14 12 10 11 13 13 12 11 11 10 9 10 12 13
31 30 30 27 24 22 19 16 14 16 18 21 23 24 24 23 23 23 23 23 23 23 23 22 23 27 29 28 22 16 14 18 18 16 14 13 13 14 13 13 13 14
30 30 30 26 23 22 20 18 17 19 20 21 23 24 26 26 26 25 24 23 23 24 24 24 26 28 34 36 33 25 24 22 20 17 16 15 15 17 17 17 17 18
34 32 32 30 27 23 23 23 22 23 24 24 23 24 25 27 28 29 27 25 25 26 26 26 27 32 40 32 32 32 27 24 22 22 18 15 14 16 18 19 17 11
37 35 nan nan 30 27 26 27 25 24 25 25 25 24 23 23 27 29 29 26 25 25 26 25 28 31 27 21 24 30 28 22 21 22 20 17 18 17 18 19 19 17
nan nan nan nan nan 31 30 29 29 28 26 26 25 23 21 22 25 28 29 28 28 28 27 30 26 22 19 19 25 31 29 27 27 26 22 21 22 21 20 19 19 20
Wind_Direction
236 238 255 264 273 257 250 250 239 215 198 214 228 182 257 219 83 139 34 78 35 50 56 53 46 41 62 17 345 337 189 141 142 138 136 134 139 153 152 147 140 136
241 238 246 254 263 243 238 250 243 228 203 202 201 195 200 216 145 197 349 77 102 41 46 37 39 29 41 359 2 350 195 148 133 143 160 153 134 147 144 148 146 143
247 242 251 263 276 271 252 242 243 230 218 208 205 201 205 214 197 190 197 221 85 25 37 16 21 31 27 347 338 264 269 169 124 147 173 153 147 142 151 160 160 139
250 247 253 265 274 289 257 244 231 226 226 216 206 212 208 228 223 198 193 191 250 159 29 354 331 30 72 329 313 295 128 134 124 157 177 162 152 157 152 154 165 169
259 250 252 261 274 282 266 240 231 220 225 230 211 212 225 229 244 221 217 215 217 192 187 315 285 320 64 209 274 271 219 187 171 181 156 148 154 161 151 149 160 174
251 245 242 253 266 273 290 251 232 225 219 226 224 220 213 233 246 244 231 233 210 199 214 237 252 280 300 220 212 221 238 213 173 182 168 164 166 156 148 152 155 169
254 246 238 240 250 253 269 270 244 231 233 221 222 226 221 232 246 245 247 242 235 216 226 224 229 231 222 216 216 182 195 206 190 199 187 178 185 156 158 174 183 170
226 234 240 232 234 238 240 244 243 232 231 233 229 228 230 234 243 238 239 249 239 237 217 229 249 241 229 229 215 198 184 200 199 212 201 190 188 168 158 167 176 180
225 225 228 228 226 221 225 226 226 225 224 230 228 226 234 238 242 242 242 239 241 243 238 224 237 249 240 235 221 209 202 196 198 211 216 204 199 182 173 181 177 185
224 227 224 221 219 215 210 210 216 214 216 217 219 224 234 237 245 250 241 244 243 238 246 234 235 234 235 234 233 225 210 203 197 205 211 213 206 197 194 197 193 186
211 215 218 216 215 214 209 198 191 192 208 211 210 216 226 238 243 246 252 247 244 242 239 240 243 243 233 223 220 222 221 213 203 205 214 213 210 208 204 203 192 195
221 228 230 231 231 230 233 232 223 202 185 194 216 209 216 233 246 248 256 258 253 249 241 238 243 250 248 230 222 223 225 214 214 210 209 219 216 207 201 208 211 203
234 234 236 232 225 232 235 247 252 245 224 189 194 232 226 230 245 255 256 265 266 265 261 251 247 250 253 249 237 229 227 222 219 218 218 215 215 215 211 212 213 212
236 231 233 232 234 234 229 231 236 248 247 219 198 226 268 250 256 270 260 265 273 272 273 268 264 260 257 258 252 246 241 230 223 225 225 224 222 218 213 212 212 212
231 233 235 236 234 231 227 221 224 228 233 226 214 216 238 248 268 283 283 278 273 278 276 271 270 268 266 267 265 260 255 243 239 236 234 236 233 227 227 225 220 216
231 234 238 236 229 225 217 216 224 227 228 232 227 223 233 236 226 236 283 289 279 274 275 271 261 257 266 300 291 271 266 263 253 248 244 245 246 238 231 234 232 227
233 232 232 233 229 226 217 211 220 228 228 236 240 232 231 231 238 228 223 238 279 276 268 261 256 254 280 292 301 304 275 264 266 256 249 249 249 249 241 237 233 234
239 236 230 228 228 226 220 213 218 227 232 234 235 235 233 231 234 235 232 232 235 239 244 247 248 262 284 286 293 297 283 262 255 254 250 247 245 245 242 240 237 237
245 242 232 227 222 220 217 211 210 215 223 227 230 234 233 232 230 234 234 231 237 241 237 235 233 234 260 277 285 292 297 275 251 254 252 244 242 239 239 238 238 235
248 246 240 231 224 221 222 215 205 217 222 230 230 227 229 232 232 231 231 229 226 227 236 241 238 233 239 246 259 278 288 273 247 255 259 258 255 247 239 236 237 237
243 247 243 239 236 228 226 226 215 218 227 229 226 226 227 228 229 227 228 228 227 227 222 222 233 233 231 235 234 234 231 249 239 239 245 251 257 259 255 247 240 237
248 245 242 238 239 246 242 246 238 236 234 229 227 225 226 229 228 227 226 227 230 229 226 221 220 217 220 227 234 231 233 238 228 224 228 235 244 247 250 250 247 243
260 256 256 252 255 259 260 254 248 248 244 238 232 230 230 229 228 226 225 226 228 232 231 228 226 223 219 219 225 234 239 239 240 233 228 230 236 241 242 243 243 245
265 264 260 260 260 261 261 256 250 248 246 243 238 236 236 233 228 226 225 225 227 230 233 230 229 235 242 243 248 258 259 251 252 253 242 232 240 251 252 251 249 250
260 263 nan nan 262 261 262 260 258 258 259 255 250 246 243 242 239 234 232 231 232 234 231 230 231 241 253 255 262 269 263 253 255 257 260 258 254 248 250 255 257 259
nan nan nan nan nan 261 261 262 262 260 261 259 257 257 251 246 243 241 236 234 234 237 237 242 240 238 245 252 249 249 253 241 235 240 239 239 242 244 245 249 255 258